Location: Blackrock Ranger Station
(36.0936°N, 118.2611°W)
Time: 02:29:27
(UTC-08:00)

YUBILEINY - Visible Passes

Search period start: 07 February 2026 00:00
Search period end: 17 February 2026 00:00
Orbit: 1479 x 1508 km, 82.5° (Epoch: 7 February)

Date Brightness Start Highest point End Pass type
(mag) Time Alt. Az. Time Alt. Az. Time Alt. Az.
7 Feb ? 05:20:04 10° NNE 05:25:05 16° ENE 05:30:02 10° E visible
7 Feb ? 18:18:11 10° ESE 18:24:05 20° E 18:29:58 10° NE visible
7 Feb ? 20:11:03 10° SSW 20:19:50 74° W 20:28:43 10° N visible
7 Feb ? 22:14:49 10° W 22:18:13 12° WNW 22:21:37 10° NW visible
8 Feb ? 19:21:39 10° S 19:30:17 62° E 19:38:56 10° NNE visible
8 Feb ? 21:20:35 10° WSW 21:27:35 26° WNW 21:34:40 10° NNW visible
9 Feb ? 05:36:05 10° NNE 05:43:08 26° ENE 05:50:06 10° SE visible
9 Feb ? 18:33:31 10° SE 18:41:03 33° E 18:48:34 10° NNE visible
9 Feb ? 20:29:00 10° SSW 20:37:26 49° WNW 20:45:56 10° N visible
10 Feb ? 04:49:04 10° NE 04:52:32 13° ENE 04:55:57 10° E visible
10 Feb ? 17:47:21 10° ESE 17:52:09 16° ENE 17:56:56 10° NE visible
10 Feb ? 19:38:48 10° S 19:47:38 88° W 19:56:32 10° N visible
10 Feb ? 21:40:42 10° W 21:45:40 16° WNW 21:50:39 10° NNW visible
11 Feb ? 05:52:49 10° N 06:00:59 41° ENE 06:09:02 10° SE visible
11 Feb ? 18:49:46 10° SSE 18:58:10 52° E 19:06:36 10° NNE visible
11 Feb ? 20:47:38 10° SW 20:55:12 31° WNW 21:02:50 10° NNW visible
12 Feb ? 05:04:22 10° NNE 05:10:42 21° ENE 05:16:56 10° ESE visible
12 Feb ? 18:02:06 10° SE 18:09:02 27° E 18:15:58 10° NNE visible
12 Feb ? 19:56:30 10° SSW 20:05:09 59° W 20:13:51 10° N visible
13 Feb ? 06:09:55 10° N 06:18:39 63° E 06:27:14 10° SSE visible
13 Feb ? 19:06:40 10° S 19:15:28 79° E 19:24:18 10° N visible
13 Feb ? 21:07:10 10° WSW 21:13:10 20° WNW 21:19:13 10° NNW visible
14 Feb ? 05:20:53 10° N 05:28:38 34° ENE 05:36:17 10° SE visible
14 Feb ? 18:18:00 10° SSE 18:26:06 43° E 18:34:12 10° NNE visible
14 Feb ? 20:14:50 10° SW 20:22:50 38° WNW 20:30:55 10° N visible
15 Feb ? 04:32:51 10° NNE 04:38:13 17° ENE 04:43:31 10° ESE visible
15 Feb ? 19:24:07 10° SSW 19:32:54 70° W 19:41:44 10° N visible
15 Feb ? 21:28:45 10° W 21:31:23 11° WNW 21:34:02 10° NW visible
16 Feb ? 05:37:51 10° N 05:46:22 52° ENE 05:54:46 10° SSE visible
16 Feb ? 18:34:38 10° S 18:43:19 66° E 18:52:02 10° NNE visible
16 Feb ? 20:33:56 10° WSW 20:40:43 24° WNW 20:47:34 10° NNW visible
